Date,TemperatureHighF,TemperatureAvgF,TemperatureLowF,DewpointHighF,DewpointAvgF,DewpointLowF,HumidityHigh,HumidityAvg,HumidityLow,PressureMaxIn,PressureMinIn,WindSpeedMaxMPH,WindSpeedAvgMPH,GustSpeedMaxMPH,PrecipitationSumIn
2013-3-1,39.6,32.3,29.0,34.4,30.4,27.0,100,93,73,29.66,29.51,8,1,12,0.00
2013-3-2,32.5,28.8,23.0,30.2,27.5,23.0,100,95,79,29.65,29.61,9,0,11,0.00
2013-3-3,29.5,25.1,21.6,27.4,24.5,21.6,100,98,91,29.63,29.57,4,0,10,0.00
2013-3-4,32.9,25.6,21.3,25.7,23.4,21.2,100,92,69,29.79,29.59,9,1,10,0.00
2013-3-5,42.9,29.1,23.3,29.7,25.9,22.8,100,89,58,30.00,29.78,6,0,9,0.00
2013-3-6,39.4,32.9,25.7,32.8,28.0,23.3,100,83,60,30.08,29.96,22,4,22,0.00
2013-3-7,40.2,32.0,28.1,28.7,25.3,22.3,98,77,55,30.07,30.01,11,0,14,0.00
2013-3-8,41.2,30.7,25.3,31.9,27.8,24.2,100,90,64,30.21,30.00,8,0,12,0.00
2013-3-9,53.4,33.3,19.7,29.5,25.3,19.7,100,76,34,30.26,30.18,8,0,11,0.00
2013-3-10,58.9,42.7,28.6,28.3,22.6,11.6,80,50,16,30.26,30.11,9,1,12,0.00
2013-3-11,51.0,43.6,36.2,31.2,28.1,24.9,78,55,40,30.16,29.95,12,1,16,0.00
2013-3-12,48.6,44.9,35.4,47.7,42.7,31.0,100,92,60,29.97,29.62,14,3,20,0.00
2013-3-13,41.7,35.7,31.5,36.3,30.7,22.5,100,84,53,29.77,29.67,7,0,20,0.00
2013-3-14,31.5,24.3,15.7,26.2,18.0,12.6,96,78,52,29.77,29.65,11,3,14,0.00
2013-3-15,35.3,23.2,11.1,29.2,17.4,9.1,100,80,45,29.79,29.50,8,1,15,0.00
2013-3-16,33.8,25.2,16.9,24.6,16.7,12.4,99,72,44,29.79,29.62,5,0,15,0.00
2013-3-17,33.5,21.8,13.6,16.3,10.9,3.0,97,66,32,30.21,29.78,10,1,16,0.00
2013-3-18,40.9,25.0,8.0,18.0,6.1,0.7,76,48,24,30.32,30.02,10,1,16,0.00
2013-3-19,32.1,29.0,26.6,30.4,26.5,18.1,99,90,65,30.02,29.60,28,4,38,0.00
2013-3-20,31.9,26.7,21.4,27.0,22.2,18.1,100,84,64,29.66,29.58,15,4,38,0.00
2013-3-21,41.9,28.4,20.0,23.1,18.4,13.0,94,70,33,29.67,29.53,8,0,18,0.00
2013-3-22,39.8,27.5,16.0,26.0,20.2,13.9,95,76,44,29.67,29.55,12,1,15,0.00
2013-3-23,37.4,29.8,23.4,25.1,21.8,18.1,95,74,49,29.72,29.59,16,3,22,0.00
2013-3-24,40.7,33.2,28.5,27.4,24.0,20.9,86,70,50,29.78,29.70,8,1,22,0.00
2013-3-25,44.6,34.7,26.5,29.0,25.2,21.7,91,70,44,29.71,29.47,10,1,14,0.00
2013-3-26,54.2,36.1,29.5,31.4,25.7,14.1,95,69,22,29.74,29.52,10,1,15,0.00
2013-3-27,48.1,37.3,27.3,28.6,25.7,22.6,88,65,39,29.85,29.71,9,1,15,0.00
2013-3-28,49.3,37.8,33.1,37.6,32.7,28.7,99,83,51,30.00,29.85,6,0,12,0.00
2013-3-29,47.5,39.4,32.8,37.5,33.9,31.6,96,81,59,30.02,29.96,8,0,11,0.00
2013-3-30,63.7,41.2,29.3,35.1,24.2,7.5,98,60,11,30.04,29.99,8,0,12,0.00
2013-3-31,56.7,42.2,29.9,37.3,25.1,16.9,90,56,22,30.04,29.67,12,3,17,0.00